Dewpoint
69 69 69 70 69 69 70 70 70 70 71 71 71 72 72 71 71 71 71 71 71 70 69 69 70 69 71 70 71 71 71 70 70 70 70 70 70 70 70 70 70 69 69 69 69 68 69 69 69 69 69 68 66 61 61 62 63 64 65 66 67 66
69 69 69 70 70 69 70 70 69 69 70 70 71 71 70 70 71 69 71 71 69 70 68 68 68 71 69 70 70 71 70 70 70 70 70 70 70 70 70 70 70 70 69 69 69 64 65 67 67 68 68 66 63 62 62 62 63 63 64 63 65 65
68 68 69 70 70 70 69 69 69 69 70 70 70 71 69 70 69 69 69 69 69 68 68 68 68 70 69 71 70 71 70 70 70 70 70 70 70 70 70 70 70 70 69 69 66 63 63 62 61 66 66 63 62 61 61 62 62 62 62 63 63 65
68 68 69 69 70 69 69 69 69 69 69 69 69 69 68 68 68 68 68 67 67 67 67 67 71 72 71 69 70 71 70 70 70 70 70 70 70 70 70 70 70 70 70 68 64 63 63 62 61 60 61 62 62 61 61 61 61 61 63 64 63 65
68 68 69 70 69 69 68 69 69 69 69 68 68 68 67 67 66 66 66 66 66 68 68 68 68 69 68 67 67 67 68 67 67 67 70 67 67 68 68 67 68 68 64 65 65 63 62 62 62 60 61 62 61 61 61 61 61 63 63 63 64 65
68 69 69 69 68 69 69 68 68 68 68 68 68 67 66 66 66 66 66 68 68 67 67 66 67 68 68 67 66 66 66 66 66 66 69 66 66 66 66 67 67 66 65 65 65 64 63 64 63 61 62 63 61 61 61 61 62 62 63 63 64 64
69 69 69 69 68 68 68 68 67 68 68 67 67 67 65 65 66 66 66 67 65 65 66 67 67 66 67 67 66 65 65 65 66 65 67 66 66 66 67 67 67 67 66 66 66 65 64 64 64 63 61 63 61 60 61 61 62 63 63 63 65 64
68 68 68 68 67 67 67 67 68 70 68 68 67 66 65 65 66 65 66 66 67 65 66 67 67 66 66 66 66 65 65 64 64 64 65 65 65 64 66 67 67 67 67 67 66 65 64 64 64 63 61 62 61 61 61 61 62 62 62 63 63 64
68 68 67 67 67 67 67 67 68 67 67 69 66 65 65 65 65 65 66 66 67 65 64 65 65 66 65 65 65 65 65 64 64 63 63 64 64 63 64 66 66 67 67 66 65 65 64 64 64 62 61 62 61 61 61 61 61 62 62 62 63 63
68 68 67 67 67 67 67 66 66 66 66 69 65 65 65 65 65 66 66 66 66 65 65 65 65 66 66 65 65 65 65 64 64 64 64 62 63 61 61 62 64 65 66 66 65 65 64 62 61 59 62 63 63 62 61 61 61 61 62 62 62 63
68 68 67 67 67 66 66 66 66 66 66 67 65 67 65 64 64 65 65 65 66 66 65 65 65 66 66 66 65 65 65 64 64 64 64 63 63 62 63 63 63 63 64 65 65 64 64 62 60 59 61 63 62 62 62 62 62 62 62 62 62 63
68 68 67 67 67 66 66 66 66 66 66 66 67 65 65 64 66 65 65 66 66 66 67 65 65 65 66 65 65 65 65 64 65 64 64 64 63 63 63 64 64 63 63 62 63 62 62 61 61 62 61 63 64 64 65 64 62 62 62 62 62 63
68 68 67 67 67 66 66 67 66 66 66 66 65 65 65 65 65 65 65 66 66 66 66 66 65 65 66 66 65 65 64 65 65 65 65 65 64 64 64 64 63 63 64 64 62 62 63 62 61 63 63 64 64 65 66 65 64 62 62 62 62 62
68 68 67 67 67 66 67 67 67 66 67 66 65 65 65 65 65 65 65 66 66 66 66 66 66 65 66 66 65 65 65 65 65 66 65 65 65 64 64 64 64 63 64 64 62 61 62 61 62 63 63 63 63 64 66 64 64 64 64 62 62 62
68 68 68 67 67 67 67 67 67 66 66 65 65 65 64 65 66 66 67 66 67 67 66 66 65 65 65 66 66 65 65 65 65 66 66 65 65 64 63 64 64 63 62 63 62 63 62 61 62 63 63 63 63 64 65 64 64 64 64 64 63 62
68 68 67 67 67 67 67 66 66 68 66 66 66 65 65 65 66 66 66 66 67 67 66 65 65 65 65 66 66 65 65 64 64 64 65 65 65 64 64 64 64 64 62 62 63 62 62 62 63 62 63 63 63 64 64 65 64 64 64 64 64 62
68 68 67 67 67 67 66 66 66 67 66 65 65 64 64 65 65 66 66 65 65 65 66 65 65 65 65 66 66 66 65 64 64 64 65 65 65 65 64 64 64 64 63 62 63 62 62 63 62 62 62 62 63 63 64 64 64 64 64 64 63 62
67 67 67 67 67 67 66 66 66 66 67 65 65 64 64 65 65 65 64 64 64 65 65 65 65 65 65 66 66 66 65 65 65 65 65 65 65 65 65 65 64 63 63 62 62 62 62 62 62 61 62 63 63 64 64 64 64 66 64 63 63 61
67 67 67 67 67 66 66 66 66 66 65 65 65 65 64 64 65 64 64 64 64 65 66 64 65 66 66 66 65 65 65 65 65 66 66 65 65 65 65 64 63 62 63 63 62 62 62 62 61 61 61 61 62 62 64 64 63 64 64 63 64 63
67 67 67 67 67 66 66 66 66 65 65 65 65 65 64 64 63 63 64 64 64 64 65 65 65 64 65 66 65 64 64 64 64 66 66 65 65 65 65 64 63 62 62 62 63 63 63 62 61 60 61 61 61 62 64 64 63 63 63 63 64 64
66 67 67 67 67 67 66 65 64 65 65 65 65 65 64 64 63 64 64 64 64 64 64 65 65 64 64 65 64 63 63 64 64 65 65 66 66 65 64 64 63 62 62 61 62 63 63 63 61 60 61 60 61 63 64 64 63 63 63 63 64 64
66 67 67 67 67 66 65 65 65 65 65 65 65 65 65 65 64 64 64 64 64 64 64 64 65 65 65 64 63 63 63 62 63 65 66 66 66 66 65 64 63 62 63 62 61 63 63 62 59 59 59 59 59 61 63 62 62 62 62 62 63 63
66 66 67 67 66 66 65 65 64 63 64 64 65 64 65 65 65 65 64 65 65 65 65 64 64 65 64 63 63 63 63 63 63 64 65 65 65 65 65 64 64 62 62 63 62 63 63 62 60 60 60 58 57 57 59 61 62 62 62 62 61 63
65 65 65 66 65 65 65 64 64 64 63 63 63 65 65 65 64 64 65 65 64 64 65 64 64 64 64 63 63 64 64 64 64 64 65 65 65 65 64 65 65 64 63 61 62 62 64 63 61 60 56 57 57 57 55 57 59 60 62 62 63 63
65 65 65 65 64 64 63 63 63 63 63 63 62 61 61 62 63 64 65 64 64 65 65 64 64 64 64 64 64 64 64 65 64 64 65 65 65 65 64 65 65 65 63 63 62 62 63 63 62 62 60 57 55 55 55 57 58 58 61 61 62 62
64 64 64 64 64 64 63 62 61 61 60 60 60 60 60 61 62 63 64 64 64 65 64 64 64 63 63 63 63 63 63 63 64 64 65 65 65 64 64 64 65 65 64 63 62 62 62 63 62 62 62 60 59 56 56 57 57 54 60 62 62 62
65 63 64 64 64 63 62 62 62 61 61 61 61 61 62 63 64 64 64 64 64 64 65 65 64 63 63 63 63 63 63 63 63 64 65 65 65 65 65 65 65 65 65 64 63 61 61 60 61 62 62 62 62 61 60 58 56 57 55 59 60 61
65 64 64 63 62 63 62 61 61 61 62 62 62 63 64 64 65 65 64 64 64 64 65 65 65 64 64 63 63 63 63 63 63 63 64 65 65 65 65 65 65 65 65 64 64 62 61 61 60 60 61 61 61 62 61 60 58 57 56 55 57 61
64 63 64 64 63 62 63 63 63 63 62 63 63 63 64 64 63 63 62 63 63 63 63 63 63 64 63 63 63 63 63 63 63 63 64 64 65 65 65 65 65 65 64 64 63 63 62 61 61 60 60 60 61 60 60 60 60 59 58 57 57 58
64 63 65 65 65 64 64 64 63 63 62 62 61 62 63 63 62 62 62 62 62 62 63 63 63 63 63 63 62 62 62 62 62 63 63 63 64 64 65 65 65 65 64 64 64 63 62 62 62 62 61 60 60 60 59 59 59 58 58 58 57 58
65 65 65 65 65 65 65 65 64 63 63 62 62 62 62 61 61 60 59 60 61 62 62 62 62 62 61 61 61 62 62 62 62 63 63 63 63 64 64 65 65 65 64 64 63 63 62 62 62 62 61 61 60 60 59 57 58 58 57 56 57 58
63 64 65 66 65 65 65 65 65 65 65 65 64 63 62 61 61 61 60 60 60 61 62 61 61 61 60 61 61 62 62 62 63 62 62 63 63 64 64 64 64 63 64 64 63 63 62 62 62 62 62 62 61 61 61 59 59 59 58 57 57 57
60 61 62 62 62 63 63 64 65 65 65 65 65 65 64 62 62 61 61 61 60 60 60 61 60 60 61 61 61 61 61 62 62 63 63 63 64 64 63 63 63 63 62 63 63 62 62 62 62 61 61 62 62 61 61 61 61 59 59 58 58 57
59 60 60 61 61 62 62 63 64 64 65 64 64 63 63 63 63 62 62 61 60 60 60 60 60 60 61 61 61 61 61 61 62 62 62 62 63 64 63 63 63 62 62 63 63 62 62 62 62 62 62 62 62 62 62 61 62 60 59 58 58 57
59 59 59 59 60 61 61 62 62 62 62 62 62 62 62 62 62 62 62 62 61 60 61 61 61 61 61 61 61 60 61 61 62 62 62 62 62 63 63 63 63 63 62 62 62 63 63 62 62 62 61 62 62 62 62 62 61 61 60 59 58 58
58 58 58 59 59 61 61 61 61 61 61 61 61 60 60 60 60 59 60 60 60 60 61 61 61 61 61 61 61 60 60 61 61 62 62 62 62 62 63 62 62 63 62 63 63 63 62 63 62 62 61 62 62 62 62 62 62 62 61 61 59 59
57 57 57 58 59 60 59 59 59 59 59 59 59 59 59 59 60 60 60 60 59 60 59 60 61 60 61 61 61 61 61 61 61 62 62 62 62 62 63 62 62 62 62 63 63 62 63 62 62 62 62 61 61 61 62 62 62 62 62 61 60 60